Погода в Лиде

Погода в Лиде : погода сейчас, прогноз погоды и архив. Всё, что Вы хотите узнать о погоде в Лиде!

Хотите узнать прогноз погоды в Лиде? Тогда Вам сюда: Погода в Лиде

Поиск расширенной информации на нашем сайте:

Другие новости

Новости СМИ2

Главная страница сайта

Новости сайта

03.07.2017

Напоминаем, что на нашем специализированном сайте Метеоцентр.Азия вы можете получить высокодетализированные автоматические прогнозы погоды по пунктам России, СНГ и мира в авиационном формате (включающие направление и скорость ветра, видимость, явления погоды, количество и форму облачности, нижнюю и верхнюю границу облачности).


Погода в Лиде - сегодня

Время (UTC), дата Ветер
(°,м/с) 
Видим.   Явления Облачность Т
(°С)
Тd
(°С)
f(%) Тe
(°С)
Pmin
(гПа)
dP
(гПа)
Po
(мм)
O2
(г/м3)
Тmin Tmax R s Состояние
почвы
18 14.08.18 070 (В) 1{10}  7000 м  гроза, ливневой дождь  10/8 480 м кучево-дожд., средняя 
[Cb cap|Ac As]
+19.4 +16.9 85 +33  1009.4  1.4  743  276    +30.3  11     
21 14.08.18 130 (ЮВ) 6000 м  дымка{гроза, ливн. осадки}  3/0 средняя 
[Ac trans]
+17.8 +16.3 91 +30  1009.2  -0.3  743  278         
00 15.08.18 260 (З) 6000 м  дымка{гроза, ливн. осадки}  8/0 средняя 
[Ac trans]
+17.6 +16.3 92 +29  1009.8  0.6  744  278           
03 15.08.18 180 (Ю) 3200 м  дымка  9/0 средняя, верхняя 
[Ac trans|Ci fib]
+16.3 +15.8 97 +28  1010.7  0.8  744  280         
06 15.08.18 250 (З) 10 км    6/0 верхняя 
[Ci fib]
+18.2 +15.9 86 +29  1011.6  745  278  +16.2       
09 15.08.18 190 (Ю) 12000 м    8/3 600 м верхняя 
[Cu hum|Ci fib]
+22.7 +15.6 64 +33  1012.1  0.7  746  274           
12 15.08.18 240 (ЮЗ) 15000 м    8/5 600 м средняя, верхняя 
[Cu med, cong|Ac trans|Ci fib]
+24.4 +13.9 52 +31  1012.2  0.3  746  273           
15 15.08.18 260 (З) 13000 м    8/3 1000 м средняя, верхняя 
[Cu hum|Ac trans|Ci fib]
+24.8 +14 51 +32  1012.7  0.5  746  273           
18 15.08.18 320 (СЗ) 11000 м    8/0 средняя 
[Ac trans]
+21.2 +15.9 72 +32  1014.2  1.2  747  276    +25.8       
21 15.08.18 280 (З) 10 км    ясно 
+18.2 +15 82 +28  1016.1  1.7  748  280           
00 16.08.18 290 (З) 9000 м  дымка  5/0 верхняя 
[Ci fib]
+16.7 +15.1 90 +27  1017  0.8  749  281           
03 16.08.18 310 (СЗ) 10 км    9/0 средняя 
[Ac As]
+17 +14.6 86 +26  1017.9  0.9  750  281           
06 16.08.18 310 (СЗ) 10 км    9/9 570 м 
[Sc]
+17.6 +14.5 82 +26  1019.2  1.3  751  281  +16.4         
09 16.08.18 320 (СЗ) 11000 м    9/9 1080 м 
[Sc]
+18.8 +12.5 67 +25  1020.1  0.9  751  281           
12 16.08.18 240 (ЮЗ) 12000 м    6/6 1000 м 
[Sc]
+21.5 +14.1 63 +29  1019.9  0.1  751  278           
15 16.08.18 тихо ()   12000 м    6/6 1000 м 
[Sc]
+22.2 +14.6 62 +30  1019.5  -0.4  751  277           
18 16.08.18 тихо ()   10 км    3/3 600 м 
[Sc diur, vesp]
+19.1 +15.9 82 +29  1019.9  0.2  751  279    +23.2       
21 16.08.18 тихо ()   8000 м  дымка  ясно 
+15.2 +14.1 93 +22  1020.8  0.5  752  284           
00 17.08.18 тихо ()   н/о  дымка  ясно 
+14.4 +14 97 +21  1021.1  0.3  752  285           
03 17.08.18 700 () 8000 м  дымка  8/0 средняя 
[Ac trans]
+15.4 +14.3 93 +24  1020.8  -0.1  752  284           
06 17.08.18 тихо ()   10 км    ясно 
+18.8 +15.8 83 +29  1021  0.3  752  280  +13.7         
09 17.08.18 060 (СВ) 13000 м    8/8 1000 м 
[Cu med, cong]
+22.4 +15.8 66 +32  1020.7  752  277           
12 17.08.18 070 (В) 15000 м    6/6 600 м 
[Cu med, cong]
+24.3 +14.8 55 +33  1019.5  -1.1  751  275           
15 17.08.18 110 (В) 15000 м    8/6 600 м средняя 
[Cu med, cong|Ac trans]
+25.3 +14.6 52 +33  1018.3  -1.1  750  274           
18 17.08.18 080 (В) 10 км    9/0 средняя 
[Ac trans]
+20.5 +16.7 79 +32  1018.2  -0.4  750  277    +26.1       
Время (UTC), дата Ветер
(°,м/с) 
Видим.   Явления Облачность Т
(°С)
Тd
(°С)
f(%) Тe
(°С)
Pmin
(гПа)
dP
(гПа)
Po
(мм)
O2
(г/м3)
Тmin Tmax R s Состояние
почвы

Для получения пояснительной информации подведите курсор к названию столбца.

ПОГОДА в Лиде - архив

Всё, что Вы хотите узнать о погоде в Лиде - удобно и подробно!

Выберите нужную дату (начиная с 1 января 2015* года) и нажмите кнопку "Найти".
Будут отображены архивные сводки погоды по пункту Лида, начиная с указанной даты.


Отображать данные в формате CSV (для использования в таблицах Excel)


Внимание! Наш архив погоды предназначен исключительно для личного некоммерческого использования в познавательных целях. Если Вам необходимы официальные справки о состоянии погоды (для производственных, юридических, коммерческих и т.п. целей), обращайтесь в органы Росгидромета.

*Примечание: данная дата относится к архиву по метеостанциям СССР (Россия, СНГ, Балтия).
Архив по метеостанциям Зарубежной Европы и Азии (кроме Китая) хранится 10 дней, по другим регионам земного шара (Китай, Африка, Америка, Австралия, Океания) - 1 день.

Лида - район местоположения метеостанции


Название, широта, долгота, высота метеостанции:
Лида 53.9°ш. 25.3°д. 157 м над ур. моря [Беларусь]

Дополнительная информация

В oтличие oт бoльшинства пoгoдных сайтoв мы публикуем пoдрoбную метеoинфoрмацию в детальнoм прoфессиoнальнoм фoрмате.

Характеристики температуры и влажнoсти вoздуха измеряются на высoте 2 м в тени вдали oт зданий и деревьев.
Скoрoсть ветра измеряется на высoте 10 м (на урoвне рoста челoвека скoрoсть ветра ниже в 1.5-2 раза). Если метеoстанция нахoдится в гoрoде или в лесу, тo скoрoсть ветра занижена на 2-4 м/с пo сравнению с oткрытым местoм. Скoрoсть ветра над акватoриями крупных рек и oзёр, а также на вершинах хoлмoв на 2-5 м/с выше, чем в oбычных услoвиях.
Атмoсфернoе давление в разных тoчках местнoсти мoжет значительнo oтличаться oт давления на метеoстанции, в зависимoсти oт услoвий рельефа (при пoдъёме на 10 м давление пoнижается примернo на 1 мм рт.ст.).